Location: Aalen
(48.8330°N, 10.1000°E)
Time: 19:06:39
(UTC+02:00)

Transit 4A - Pass Details

Date: 04 August 2021
Orbit: 871 x 974 km, 66.8° (Epoch: 16 September)

Event Time Altitude Azimuth Distance (km) Brightness Sun altitude
Rises 04:35:16 0° 299° (WNW) 3,468 10.7 -11.7°
Reaches altitude 10° 04:39:16 10° 326° (NW) 2,528 10.3 -11.2°
Maximum altitude 04:42:01 13° 354° (N) 2,294 10.5 -10.9°
Drops below altitude 10° 04:44:46 10° 23° (NNE) 2,535 11.3 -10.6°
Sets 04:48:48 0° 49° (NE) 3,485 13.3 -10.1°
